Location: Warszawa
(52.2500°N, 21.0000°E)
Time: 00:11:24
(UTC+01:00)

A-11 Canister half - Pass Details

Date: 09 February 2023
Orbit: 1526 x 1682 km, 47.3° (Epoch: 22 March)

Event Time Altitude Azimuth Distance (km) Brightness Sun altitude
Exits shadow 05:48:59 - 248° (WSW) 3,896 10.6 -11.8°
Reaches altitude 10° 05:49:37 10° 248° (WSW) 3,692 10.5 -11.7°
Maximum altitude 05:58:44 63° 170° (S) 1,681 9.3 -10.3°
Drops below altitude 10° 06:07:58 10° 92° (E) 3,743 12.6 -8.9°
Sets 06:11:05 0° 90° (E) 4,745 13.5 -8.5°
